www.pogodaiklimat.ru

Погода и климат >> Архив погоды >> Россия >> Пермский край >> Чайковский


ПОГОДА в Чайковском

  • Прогноз погоды в Чайковском
  • Монитор погоды в Чайковском

АРХИВ ПОГОДЫ в Чайковском

Время (UTC), дата Ветер
(напр.,м/с)
 
Видим.   Явления Облачность Т
(С)
Тd
(С)
f
(%)
Тe
(С)
Тes
(С)
Комфортность P
(гПа)
Po
(гПа)
Тmin
(С)
Tmax
(С)
R
(мм)
R24
(мм)
S
(см)
18 17.06 штиль 0 50 км 1/1 600 м
[Sc]
+13.6 +10.3 80 +13 +13 1007.7 996.1
21 17.06 З 1 50 км 3/0
[Ci fib]
+9.4 +8.6 95 +9 +9 1009.2 997.3
00 18.06 штиль 0 50 км ясно +6.9 +6.2 95 +6 +6 1010.8 998.8
03 18.06 З 1 50 км ясно +11.0 +5.4 68 +11 +15 1011.8 1000.0 +6.6
06 18.06 СЗ 1 50 км ясно +15.3 +3.8 46 +16 +30 опасность
простуды
1012.1 1000.5
09 18.06 З 1 50 км 3/1 600 м
[Cu hum]
+17.6 +4.0 40 +19 +33 опасность
простуды
1011.6 1000.1
12 18.06 З 1 50 км 6/4 1000 м
[Sc Ac trans Ci fib]
+20.0 +3.0 32 +21 +27 комфорт 1010.6 999.1
15 18.06 З 1 50 км 8/3 1000 м
[Cu hum Ci]
+20.5 +5.4 37 +22 +23 комфорт 1009.4 998.0 +21.0
18 18.06 Ю 3 50 км 8/4 600 м
[Sc diur, vesp Ci]
+16.0 +6.4 53 +16 +16 1009.5 998.0
21 18.06 Ю 1 50 км 6/1 600 м
[Sc diur, vesp Ci]
+14.0 +7.8 66 +14 +14 1009.5 997.9
00 19.06 штиль 0 50 км 9/5 600 м
[Cu Sc As trans Ci]
+13.5 +7.9 69 +13 +13 1009.5 997.9
03 19.06 Ю 3 50 км 9/6 600 м
[Cu Sc As trans Ci]
+16.1 +7.5 57 +16 +17 1009.1 997.6 +13.5
06 19.06 З 3 50 км 10/3 600 м
[Cu Sc As trans Cc]
+20.4 +10.7 54 +22 +26 комфорт 1008.9 997.5
09 19.06 З 2 50 км 10/4 600 м
[Sc Ac trans Ci fib]
+21.1 +11.6 55 +23 +28 комфорт 1009.4 998.0
12 19.06 З 2 50 км 4/3 600 м
[Cu med, cong Ci fib]
+22.8 +12.5 52 +26 +32 жарко 1008.8 997.5
15 19.06 ЮЗ 2 50 км 9/3 600 м
[Cb calv Ac trans Cc]
+22.7 +13.0 54 +26 +26 жарко 1009.2 997.9 +23.9
18 19.06 Ю 3 10 км гроза, ливневой дождь 10/10 600 м
[Cb cap]
+14.8 +13.7 93 +14 +14 1010.6 999.0
21 19.06 штиль 0 10 км {гроза, ливн. осадки} ясно +13.7 +12.5 92 +13 +13 1010.5 998.9
00 20.06 ЮВ 1 50 км {гроза, ливн. осадки} 10/0
[Cs]
+12.6 +11.5 93 +13 +13 1011.0 999.3
03 20.06 З 1 50 км 8/0
[Ci fib]
+17.4 +14.2 81 +18 +22 1011.5 1000.0 +12.6 16
06 20.06 ЮЗ 2 50 км 8/3 600 м
[Cu hum Ci fib]
+22.9 +14.3 58 +26 +34 жарко 1011.5 1000.2
09 20.06 СЗ 3 50 км 9/8 600 м
[Cb calv Ci fib]
+25.8 +10.8 39 +27 +29 жарко 1010.7 999.5
12 20.06 З 3 50 км 9/8 600 м
[Cu Sc Ci fib]
+26.9 +9.2 33 +27 +28 жарко 1009.6 998.5
15 20.06 З 2
{10}
50 км {ливн. осадки} 8/6 1000 м
[Sc Ci fib]
+25.6 +11.9 42 +27 +27 жарко 1009.6 998.4 +27.0
18 20.06 З 2 50 км {ливн. осадки} 8/8 1000 м
[Sc diur, vesp Ci fib]
+21.2 +11.6 54 +23 +23 комфорт 1011.5 1000.1
21 20.06 З 1 50 км 6/3 1000 м
[Sc diur, vesp Ci fib]
+18.7 +11.2 62 +20 +20 1012.4 1000.9
00 21.06 З 1 50 км 8/3 600 м
[Sc Ci fib]
+14.7 +11.7 82 +15 +15 1013.6 1002.0
03 21.06 З 1 50 км 9/8 600 м
[Sc Ci fib]
+17.1 +11.9 71 +18 +19 1015.3 1003.8 +14.2
06 21.06 З 1 50 км 9/3 600 м
[Cu hum Cs]
+21.2 +11.7 55 +23 +31 комфорт 1016.3 1004.8
09 21.06 СЗ 3 50 км 8/8 600 м
[Cu med, cong]
+22.7 +9.6 43 +24 +27 комфорт 1016.5 1005.2
12 21.06 СЗ 3 50 км 6/3 600 м
[Cu hum Ci fib]
+23.5 +7.9 37 +24 +29 комфорт 1016.8 1005.4
15 21.06 С 2 50 км 4/0
[Cc]
+22.8 +4.3 30 +23 +24 комфорт 1016.5 1005.1 +23.8
18 21.06 штиль 0 50 км 3/0
[Ci fib]
+17.3 +9.6 61 +17 +17 1017.9 1006.3
21 21.06 ЮВ 1 50 км 6/0 2000 м
[Ac trans Ci]
+12.4 +8.2 76 +12 +12 1018.8 1007.0
00 22.06 штиль 0 50 км 4/0 2000 м
[Ac trans Ci fib]
+10.9 +6.9 76 +10 +10 1020.0 1008.1
03 22.06 ЮВ 1 50 км 3/0 2000 м
[Ac trans Ci fib]
+17.5 +7.6 52 +19 +23 1020.3 1008.7 +10.9
06 22.06 ЮВ 2 50 км 4/0
[Ci]
+22.6 +7.6 38 +24 +35 комфорт 1019.3 1007.9
09 22.06 Ю 3 50 км 6/0
[Ci sp]
+25.4 +11.0 40 +26 +38 жарко 1018.2 1006.9
12 22.06 Ю 3 50 км 4/0
[Ci]
+27.2 +12.8 41 +29 +35 жарко 1016.3 1005.2
15 22.06 Ю 2 50 км 10/8 1000 м
[Sc Ac As]
+26.0 +13.2 45 +28 +28 жарко 1014.6 1003.4 +27.3
18 22.06 Ю 3 50 км 10/10 600 м
[Cb calv]
+24.9 +12.3 45 +27 +27 жарко 1013.7 1002.4
21 22.06 ЮЗ 3 50 км 10/10 600 м
[Sc]
+23.5 +12.6 50 +25 +25 комфорт 1012.6 1001.3
00 23.06 Ю 3 50 км 6/6 600 м
[Sc]
+21.9 +12.4 55 +24 +24 комфорт 1011.7 1000.4
03 23.06 ЮЗ 3 50 км 9/8 600 м
[Sc Ac cast Ci sp]
+21.7 +13.6 60 +24 +25 комфорт 1012.1 1000.8 +21.2
06 23.06 ЮЗ 3 50 км 10/0 2000 м
[Ac cast Cc]
+24.8 +16.0 58 +28 +32 жарко 1011.5 1000.3
09 23.06 З 5-10
{11}
50 км 8/8 600 м
[Cb calv]
+28.1 +15.4 46 +31 +33 душно 1011.1 1000.0
12 23.06 З 5
{12}
50 км 4/4 600 м
[Cu med, cong]
+28.9 +14.0 40 +31 +34 жарко 1011.2 1000.1
15 23.06 СЗ 2 50 км 8/8 600 м
[Sc diur, vesp]
+27.3 +14.5 45 +30 +30 душно 1011.4 1000.3 +29.0
18 23.06 З 1 50 км 4/4 600 м
[Sc diur, vesp]
+23.3 +15.0 60 +27 +27 душно 1012.9 1001.6
21 23.06 З 1 50 км 4/4 1000 м
[Sc diur, vesp]
+20.4 +14.9 71 +24 +24 комфорт 1013.7 1002.3
00 24.06 З 2 50 км 3/3 1000 м
[Sc]
+18.4 +12.7 69 +19 +19 1014.6 1003.1
03 24.06 З 1 50 км ясно +20.1 +12.0 60 +23 +27 комфорт 1015.1 1003.7 +17.9
06 24.06 СЗ 1 50 км ясно +23.7 +11.8 47 +25 +40 комфорт 1015.1 1003.8
09 24.06 З 3 50 км 4/3 1000 м
[Sc Ac trans Ci sp]
+26.1 +6.9 29 +26 +34 жарко 1014.6 1003.4
12 24.06 СЗ 3 50 км 9/8 1000 м
[Sc Ac As]
+25.3 +8.4 34 +26 +27 жарко 1014.2 1003.0
15 24.06 СЗ 1 50 км 9/9 1000 м
[Sc]
+22.8 +9.8 44 +25 +25 комфорт 1013.9 1002.6 +26.3

 

Местоположение метеостанции Чайковский (Пермский край, Россия): широта 56.75 долгота 54.08 высота над уровнем моря 98 м.

В архиве по умолчанию представлена погода в Чайковском за последнюю неделю. Архивные данные за месяц целиком и за предыдущие месяцы, начиная с января 2011 года, Вы можете получить, выбрав интересующий диапазон дат из раскрывающегося списка и нажав кнопку "Ввод!".


*Определитесь, кто Вы:
робот инопланетянин человек

Внимание! Время в таблицах - всемирное. Для получения местного времени необходимо прибавить поправку, которая равна 5 ч.

Смотрите также архив погоды в соседних городах и на ближайших метеорологических станциях:

Погода в Воткинске (Удмуртия, Россия) (35 км)
Погода в Сарапуле (Удмуртия, Россия) (38 км)
Погода в Ижевске (Удмуртия, Россия) (39 км)
Погода в Ножовке (Пермский край, Россия) (55 км)
Погода в Янауле (Башкирия, Россия) (73 км)
Погода в Дебесах (Удмуртия, Россия) (99 км)
Погода в Осе (Пермский край, Россия) (100 км)
Погода в Игре (Удмуртия, Россия) (107 км)
Погода в Можге (Удмуртия, Россия) (121 км)
Погода в Чернушке (Пермский край, Россия) (128 км)

Пояснения к столбцам:

Ветер - указаны скорость ветра в м/с - средняя за 10 мин, порывы в срок и между сроками (в фигурных скобках) и направление, откуда дует ветер: С - северный, СВ - северо-восточный, В - восточный, ЮВ - юго-восточный, Ю - южный, ЮЗ - юго-западный, З - западный, СЗ - северо-западный.
Видимость - горизонтальная дальность видимости в метрах или километрах. При видимости от 1 до 10 км при отсутствии осадков обычно наблюдается дымка, при ухудшении видимости до 1 км и менее - туман. В сухую погоду видимость может ухудшаться дымом, пылью или мглою.
Явления - указаны атмосферные явления, наблюдавшиеся в срок или в последний час перед сроком; фигурными скобками обозначены явления, наблюдавшиеся между сроками (за 1-3 часа до срока); квадратными скобками обозначены град или гололедные отложения с указанием их диаметра в мм.
Облачность - указаны через наклонную черту общая и нижняя облачность в баллах и высота нижней границы облаков в метрах; квадратными скобками обозначены формы облаков: Ci - перистые, Cs - перисто-слоистые, Cc - перисто-кучевые, Ac - высококучевые, As - высокослоистые, Sc - слоисто-кучевые, Ns - слоисто-дождевые, Cu - кучевые, Cb - кучево-дождевые. Подробнее классификацию облаков см. в Атласе облаков (PDF).
T - Температура воздуха - температура, измеренная на высоте 2 м над землей.
Td - Температура точки росы - температура, при понижении до которой содержащийся в воздухе водяной пар достигнет насыщения.
f - Относительная влажность воздуха - влажноcть воздуха, измеренная на высоте 2 м над землей.
Te - Эффективная температура - температура, которую ощущает одетый по сезону человек в тени. Характеристика душности погоды. При расчете учитывается влияние влажности воздуха и скорости ветра на теплоощущения человека.
Tes - Эффективная температура на солнце - температура, которую ощущает человек, с поправкой на солнечный нагрев. Характеристика знойности погоды. Зависит от высоты солнца над горизонтом, облачности и скорости ветра. Ночью, в пасмурную погоду, а также при ветре 12 м/с и более поправка равна нулю.
P - Атмосферное давление - приведенное к уровню моря атмосферное давление.
Po - Атмосферное давление - измеренное на уровне метеостанции атмосферное давление.
Tmin - Минимальная температура - минимум температуры воздуха на высоте 2 м над землей.
Tmax - Максимальная температура - максимум температуры воздуха на высоте 2 м над землей.
R - Количество осадков - Количество выпавших осадков за период времени, мм. При наведении курсора мыши на число - период времени, за который выпало указанное количество осадков.
R24 - Количество осадков - Количество выпавших осадков за 24 часа, мм.
S - Снежный покров - Высота снежного покрова, см. При наведении курсора мыши на число - состояние снежного покрова и степень покрытия местности в баллах.